,,Stat6,,Stat2,,Stat8,,Stat9,,Stat10,,Wind1,,Wind1,
time,status,PA1M_AVG,status,PR1M_SUM,status,RH1M_AVG,status,SR1M_AVG,status,TA1M_AVG,status,W1dAve1m,status,W1sAve1m,
2004-01-22, 00:00:00,VALID,917.291,VALID,0,VALID,81.3738,VALID,-0.0509425,VALID,22.4214,VALID,83,VALID,2.9202,
2004-01-22, 00:01:00,VALID,917.253,VALID,0,VALID,80.827,VALID,-0.0679233,VALID,22.4558,VALID,71,VALID,2.4758,
2004-01-22, 00:02:00,VALID,917.222,VALID,0,VALID,80.8016,VALID,-0.0849042,VALID,22.5046,VALID,110,VALID,2.01563,
2004-01-22, 00:03:00,VALID,917.202,VALID,0,VALID,80.6922,VALID,-0.0849042,VALID,22.4973,VALID,76,VALID,2.8647,
2004-01-22, 00:04:00,VALID,917.186,VALID,0,VALID,80.6909,VALID,-0.0679233,VALID,22.4973,VALID,76,VALID,3.23993,
2004-01-22, 00:05:00,VALID,917.149,VALID,0,VALID,80.4341,VALID,-0.0509425,VALID,22.5243,VALID,74,VALID,2.93405,
2004-01-22, 00:06:00,VALID,917.145,VALID,0,VALID,80.9707,VALID,-0.0849042,VALID,22.521,VALID,63,VALID,1.6431,
2004-01-22, 00:07:00,VALID,917.155,VALID,0,VALID,81.1436,VALID,-0.0679233,VALID,22.4723,VALID,61,VALID,1.55139,
2004-01-22, 00:08:00,VALID,917.178,VALID,0,VALID,80.9516,VALID,-0.0849042,VALID,22.4303,VALID,62,VALID,2.39463,
2004-01-22, 00:09:00,VALID,917.178,VALID,0,VALID,80.785,VALID,-0.101885,VALID,22.4238,VALID,98,VALID,1.86396,
2004-01-22, 00:10:00,VALID,917.182,VALID,0,VALID,80.0742,VALID,-0.101885,VALID,22.4723,VALID,81,VALID,2.17801,
2004-01-22, 00:11:00,VALID,917.178,VALID,0,VALID,80.3489,VALID,-0.0679233,VALID,22.5137,VALID,57,VALID,2.13186,
2004-01-22, 00:12:00,VALID,917.192,VALID,0,VALID,80.6909,VALID,-0.0849042,VALID,22.5175,VALID,74,VALID,1.6195,
2004-01-22, 00:13:00,VALID,917.185,VALID,0,VALID,80.8919,VALID,-0.0339617,VALID,22.4811,VALID,102,VALID,1.73084,
2004-01-22, 00:14:00,VALID,917.161,VALID,0,VALID,80.6146,VALID,-0.0339617,VALID,22.4787,VALID,96,VALID,2.752,
2004-01-22, 00:15:00,VALID,917.149,VALID,0,VALID,80.7329,VALID,-0.0679233,VALID,22.5146,VALID,66,VALID,2.11604,
2004-01-22, 00:16:00,VALID,917.15,VALID,0,VALID,81.1894,VALID,-0.0509425,VALID,22.4712,VALID,62,VALID,1.45488,
2004-01-22, 00:17:00,VALID,917.129,VALID,0,VALID,81.2581,VALID,-0.0169808,VALID,22.4488,VALID,45,VALID,1.63164,
2004-01-22, 00:18:00,VALID,917.097,VALID,0,VALID,81.6383,VALID,-0.0679233,VALID,22.4303,VALID,41,VALID,2.07682,
2004-01-22, 00:19:00,VALID,917.097,VALID,0,VALID,81.3306,VALID,-0.0339617,VALID,22.4003,VALID,50,VALID,1.97802,
2004-01-22, 00:20:00,VALID,917.089,VALID,0,VALID,80.49,VALID,-0.0679233,VALID,22.4168,VALID,84,VALID,2.35637,
2004-01-22, 00:21:00,VALID,917.07,VALID,0,VALID,80.5867,VALID,-0.0339617,VALID,22.4682,VALID,61,VALID,2.39193,
2004-01-22, 00:22:00,VALID,917.057,VALID,0,VALID,80.5956,VALID,-0.0169808,VALID,22.4744,VALID,48,VALID,2.9742,
2004-01-22, 00:23:00,VALID,917.063,VALID,0,VALID,80.5612,VALID,-0.0509425,VALID,22.465,VALID,47,VALID,2.75074,
2004-01-22, 00:24:00,VALID,917.057,VALID,0,VALID,80.7113,VALID,-0.0339617,VALID,22.4752,VALID,61,VALID,1.76935,
2004-01-22, 00:25:00,VALID,917.059,VALID,0,VALID,80.6833,VALID,-0.0509425,VALID,22.452,VALID,55,VALID,2.26847,
2004-01-22, 00:26:00,VALID,917.046,VALID,0,VALID,80.7075,VALID,-0.0679233,VALID,22.4426,VALID,60,VALID,2.26651,
2004-01-22, 00:27:00,VALID,917.037,VALID,0,VALID,80.9058,VALID,-0.0339617,VALID,22.4403,VALID,58,VALID,2.20011,
2004-01-22, 00:28:00,VALID,917.019,VALID,0,VALID,81.3077,VALID,-0.0169808,VALID,22.4173,VALID,59,VALID,1.61124,
2004-01-22, 00:29:00,VALID,917.017,VALID,0,VALID,81.6217,VALID,-0.0509425,VALID,22.346,VALID,61,VALID,2.01048,
2004-01-22, 00:30:00,VALID,916.987,VALID,0,VALID,81.665,VALID,-0.0509425,VALID,22.2813,VALID,56,VALID,1.64232,
2004-01-22, 00:31:00,VALID,916.946,VALID,0,VALID,81.5289,VALID,-0.0679233,VALID,22.2358,VALID,82,VALID,1.84263,
2004-01-22, 00:32:00,VALID,916.931,VALID,0,VALID,81.5505,VALID,-0.0849042,VALID,22.2458,VALID,71,VALID,2.29578,
2004-01-22, 00:33:00,VALID,916.933,VALID,0,VALID,82.0299,VALID,-0.0679233,VALID,22.217,VALID,72,VALID,2.32227,
2004-01-22, 00:34:00,VALID,916.905,VALID,0,VALID,82.2677,VALID,-0.0509425,VALID,22.1747,VALID,75,VALID,1.88319,
2004-01-22, 00:35:00,VALID,916.901,VALID,0,VALID,82.3046,VALID,-0.0849042,VALID,22.143,VALID,95,VALID,2.10547,
2004-01-22, 00:36:00,VALID,916.91,VALID,0,VALID,81.8799,VALID,-0.0509425,VALID,22.126,VALID,78,VALID,2.7115,
2004-01-22, 00:37:00,VALID,916.874,VALID,0,VALID,82.1736,VALID,-0.0509425,VALID,22.1136,VALID,56,VALID,2.73212,
2004-01-22, 00:38:00,VALID,916.828,VALID,0,VALID,81.8074,VALID,-0.0509425,VALID,22.1004,VALID,70,VALID,2.76445,
2004-01-22, 00:39:00,VALID,916.78,VALID,0,VALID,81.4844,VALID,-0.0509425,VALID,22.1489,VALID,58,VALID,2.19885,
2004-01-22, 00:40:00,VALID,916.799,VALID,0,VALID,81.178,VALID,-0.0679233,VALID,22.1812,VALID,107,VALID,2.42478,
2004-01-22, 00:41:00,VALID,916.814,VALID,0,VALID,81.0775,VALID,-0.0849042,VALID,22.2108,VALID,87,VALID,2.23522,
2004-01-22, 00:42:00,VALID,916.806,VALID,0,VALID,80.4277,VALID,-0.0679233,VALID,22.2423,VALID,95,VALID,2.99647,
2004-01-22, 00:43:00,VALID,916.818,VALID,0,VALID,80.5218,VALID,-0.0509425,VALID,22.3207,VALID,89,VALID,1.93236,
2004-01-22, 00:44:00,VALID,916.83,VALID,0,VALID,80.7609,VALID,-0.0339617,VALID,22.2937,VALID,64,VALID,1.79251,
2004-01-22, 00:45:00,VALID,916.804,VALID,0,VALID,80.8359,VALID,-0.0509425,VALID,22.2496,VALID,74,VALID,2.80878,
2004-01-22, 00:46:00,VALID,916.778,VALID,0,VALID,80.841,VALID,-0.0679233,VALID,22.2452,VALID,68,VALID,2.13357,
2004-01-22, 00:47:00,VALID,916.772,VALID,0,VALID,81.15,VALID,-0.0849042,VALID,22.2552,VALID,62,VALID,1.19355,
2004-01-22, 00:48:00,VALID,916.764,VALID,0,VALID,81.5251,VALID,-0.0339617,VALID,22.2167,VALID,46,VALID,2.02622,
2004-01-22, 00:49:00,VALID,916.758,VALID,0,VALID,81.8189,VALID,-0.0169808,VALID,22.1583,VALID,79,VALID,2.20579,
2004-01-22, 00:50:00,VALID,916.728,VALID,0,VALID,81.9155,VALID,-0.0679233,VALID,22.1489,VALID,89,VALID,2.45918,
2004-01-22, 00:51:00,VALID,916.683,VALID,0,VALID,81.946,VALID,-0.0169808,VALID,22.1295,VALID,52,VALID,1.94903,
2004-01-22, 00:52:00,VALID,916.691,VALID,0,VALID,81.3089,VALID,-0.0339617,VALID,22.133,VALID,53,VALID,2.9809,
2004-01-22, 00:53:00,VALID,916.675,VALID,0,VALID,81.1309,VALID,-0.0849042,VALID,22.1623,VALID,76,VALID,1.99258,
2004-01-22, 00:54:00,VALID,916.648,VALID,0,VALID,81.506,VALID,-0.0679233,VALID,22.165,VALID,62,VALID,1.18306,
2004-01-22, 00:55:00,VALID,916.623,VALID,0,VALID,81.7553,VALID,-0.0339617,VALID,22.1319,VALID,87,VALID,1.65282,
2004-01-22, 00:56:00,VALID,916.613,VALID,0,VALID,82.2677,VALID,-0.0339617,VALID,22.1039,VALID,85,VALID,1.03205,
2004-01-22, 00:57:00,VALID,916.601,VALID,0,VALID,82.5271,VALID,-0.0849042,VALID,22.0393,VALID,39,VALID,1.81996,
2004-01-22, 00:58:00,VALID,916.62,VALID,0,VALID,82.2321,VALID,0.0339617,VALID,21.9991,VALID,29,VALID,2.21857,
2004-01-22, 00:59:00,VALID,916.625,VALID,0,VALID,82.3008,VALID,0.0679233,VALID,21.9859,VALID,48,VALID,2.0968,
2004-01-22, 01:00:00,VALID,916.608,VALID,0,VALID,81.6459,VALID,0,VALID,22.0024,VALID,70,VALID,1.95257,
2004-01-22, 01:01:00,VALID,916.604,VALID,0,VALID,81.534,VALID,0,VALID,22.0508,VALID,74,VALID,2.39639,
2004-01-22, 01:02:00,VALID,916.614,VALID,0,VALID,81.5467,VALID,0.0509425,VALID,22.0726,VALID,88,VALID,2.24836,
2004-01-22, 01:03:00,VALID,916.618,VALID,0,VALID,81.9193,VALID,0.0509425,VALID,22.0858,VALID,80,VALID,1.0158,
2004-01-22, 01:04:00,VALID,916.602,VALID,0,VALID,81.8672,VALID,0.0679233,VALID,22.0438,VALID,98,VALID,2.10273,
2004-01-22, 01:05:00,VALID,916.596,VALID,0,VALID,81.8443,VALID,0.0679233,VALID,22.0406,VALID,85,VALID,1.72378,
2004-01-22, 01:06:00,VALID,916.602,VALID,0,VALID,82.124,VALID,0.0679233,VALID,22.0347,VALID,41,VALID,1.33817,
2004-01-22, 01:07:00,VALID,916.608,VALID,0,VALID,82.4801,VALID,0.101885,VALID,21.9924,VALID,70,VALID,1.52616,
2004-01-22, 01:08:00,VALID,916.586,VALID,0,VALID,82.5551,VALID,0.0509425,VALID,21.9342,VALID,64,VALID,2.34623,
2004-01-22, 01:09:00,VALID,916.552,VALID,0,VALID,82.2016,VALID,0.0679233,VALID,21.9111,VALID,60,VALID,2.20458,
2004-01-22, 01:10:00,VALID,916.508,VALID,0,VALID,81.9714,VALID,0.0679233,VALID,21.9407,VALID,63,VALID,1.73152,
2004-01-22, 01:11:00,VALID,916.484,VALID,0,VALID,81.4145,VALID,0.0679233,VALID,21.9859,VALID,94,VALID,2.17344,
2004-01-22, 01:12:00,VALID,916.49,VALID,0,VALID,81.506,VALID,0.101885,VALID,22.0053,VALID,87,VALID,2.40225,
2004-01-22, 01:13:00,VALID,916.497,VALID,0,VALID,80.1976,VALID,0,VALID,22.0296,VALID,96,VALID,4.13245,
2004-01-22, 01:14:00,VALID,916.514,VALID,0,VALID,79.9712,VALID,-0.0169808,VALID,22.1583,VALID,53,VALID,2.87845,
2004-01-22, 01:15:00,VALID,916.541,VALID,0,VALID,79.872,VALID,-0.0169808,VALID,22.1941,VALID,98,VALID,2.03234,
2004-01-22, 01:16:00,VALID,916.523,VALID,0,VALID,80.1441,VALID,0,VALID,22.1973,VALID,76,VALID,1.8561,
2004-01-22, 01:17:00,VALID,916.517,VALID,0,VALID,79.9827,VALID,0,VALID,22.1653,VALID,130,VALID,2.01918,
2004-01-22, 01:18:00,VALID,916.533,VALID,0,VALID,80.0462,VALID,0,VALID,22.165,VALID,85,VALID,1.92321,
2004-01-22, 01:19:00,VALID,916.563,VALID,0,VALID,80.2789,VALID,0,VALID,22.1486,VALID,79,VALID,1.4875,
2004-01-22, 01:20:00,VALID,916.555,VALID,0,VALID,80.8779,VALID,-0.0339617,VALID,22.1203,VALID,100,VALID,1.11986,
2004-01-22, 01:21:00,VALID,916.563,VALID,0,VALID,81.6383,VALID,0,VALID,22.0581,VALID,98,VALID,1.52325,
2004-01-22, 01:22:00,VALID,916.554,VALID,0,VALID,82.0935,VALID,0,VALID,21.9873,VALID,91,VALID,1.56641,
2004-01-22, 01:23:00,VALID,916.523,VALID,0,VALID,82.6022,VALID,-0.0169808,VALID,21.8966,VALID,87,VALID,1.23084,
2004-01-22, 01:24:00,VALID,916.462,VALID,0,VALID,82.8997,VALID,-0.0169808,VALID,21.8546,VALID,104,VALID,1.54973,
2004-01-22, 01:25:00,VALID,916.443,VALID,0,VALID,82.9697,VALID,0,VALID,21.8319,VALID,129,VALID,1.50642,
2004-01-22, 01:26:00,VALID,916.433,VALID,0,VALID,83.3041,VALID,-0.0509425,VALID,21.8228,VALID,120,VALID,1.70712,
2004-01-22, 01:27:00,VALID,916.381,VALID,0,VALID,83.6932,VALID,-0.0169808,VALID,21.7671,VALID,78,VALID,1.1471,
2004-01-22, 01:28:00,VALID,916.366,VALID,0,VALID,83.7224,VALID,-0.0339617,VALID,21.7356,VALID,34,VALID,1.71768,
2004-01-22, 01:29:00,VALID,916.392,VALID,0,VALID,83.8445,VALID,-0.0169808,VALID,21.7194,VALID,65,VALID,1.3681,
2004-01-22, 01:30:00,VALID,916.406,VALID,0,VALID,83.6309,VALID,0,VALID,21.6806,VALID,58,VALID,2.07903,
2004-01-22, 01:31:00,VALID,916.383,VALID,0,VALID,82.2804,VALID,0,VALID,21.7124,VALID,36,VALID,2.22676,
2004-01-22, 01:32:00,VALID,916.38,VALID,0,VALID,80.9771,VALID,0,VALID,21.8457,VALID,26,VALID,2.3309,
2004-01-22, 01:33:00,VALID,916.396,VALID,0,VALID,80.771,VALID,-0.0169808,VALID,21.9447,VALID,41,VALID,1.98819,
2004-01-22, 01:34:00,VALID,916.404,VALID,0,VALID,80.1874,VALID,0,VALID,22.014,VALID,86,VALID,1.4048,
2004-01-22, 01:35:00,VALID,916.4,VALID,0,VALID,80.1162,VALID,-0.0169808,VALID,22.0554,VALID,87,VALID,1.21839,
2004-01-22, 01:36:00,VALID,916.383,VALID,0,VALID,80.106,VALID,-0.0169808,VALID,22.0942,VALID,59,VALID,1.10194,
2004-01-22, 01:37:00,VALID,916.364,VALID,0,VALID,80.1492,VALID,0,VALID,22.1039,VALID,54,VALID,2.09261,
2004-01-22, 01:38:00,VALID,916.341,VALID,0,VALID,79.8542,VALID,0,VALID,22.1295,VALID,71,VALID,2.40527,
2004-01-22, 01:39:00,VALID,916.282,VALID,0,VALID,78.9984,VALID,0,VALID,22.1903,VALID,61,VALID,3.30142,
2004-01-22, 01:40:00,VALID,916.259,VALID,0,VALID,78.4199,VALID,-0.0169808,VALID,22.3201,VALID,35,VALID,2.40048,
2004-01-22, 01:41:00,VALID,916.269,VALID,0,VALID,79.0073,VALID,-0.0169808,VALID,22.3583,VALID,35,VALID,1.64462,
2004-01-22, 01:42:00,VALID,916.283,VALID,0,VALID,79.1574,VALID,0,VALID,22.3066,VALID,64,VALID,1.37003,
2004-01-22, 01:43:00,VALID,916.273,VALID,0,VALID,79.1345,VALID,0,VALID,22.2878,VALID,62,VALID,1.67645,
2004-01-22, 01:44:00,VALID,916.296,VALID,0,VALID,79.5935,VALID,-0.0169808,VALID,22.2358,VALID,36,VALID,2.08333,
2004-01-22, 01:45:00,VALID,916.248,VALID,0,VALID,78.7645,VALID,0,VALID,22.2332,VALID,33,VALID,2.59014,
2004-01-22, 01:46:00,VALID,916.223,VALID,0,VALID,78.5038,VALID,-0.0339617,VALID,22.2776,VALID,53,VALID,3.6804,
2004-01-22, 01:47:00,VALID,916.192,VALID,0,VALID,78.1299,VALID,-0.0169808,VALID,22.3104,VALID,34,VALID,3.87627,
2004-01-22, 01:48:00,VALID,916.226,VALID,0,VALID,77.8375,VALID,-0.0509425,VALID,22.3692,VALID,40,VALID,2.47917,
2004-01-22, 01:49:00,VALID,916.206,VALID,0,VALID,77.7141,VALID,0,VALID,22.3977,VALID,53,VALID,2.58929,
2004-01-22, 01:50:00,VALID,916.214,VALID,0,VALID,77.929,VALID,-0.0169808,VALID,22.4041,VALID,42,VALID,1.95733,
2004-01-22, 01:51:00,VALID,916.187,VALID,0,VALID,78.3219,VALID,0,VALID,22.3718,VALID,25,VALID,1.83105,
2004-01-22, 01:52:00,VALID,916.116,VALID,0,VALID,77.9672,VALID,-0.0169808,VALID,22.3357,VALID,38,VALID,2.44451,
2004-01-22, 01:53:00,VALID,916.088,VALID,0,VALID,77.2004,VALID,-0.0339617,VALID,22.4009,VALID,19,VALID,3.43874,
2004-01-22, 01:54:00,VALID,916.105,VALID,0,VALID,77.7167,VALID,-0.0169808,VALID,22.4353,VALID,50,VALID,1.63114,
2004-01-22, 01:55:00,VALID,916.094,VALID,0,VALID,77.5959,VALID,0,VALID,22.4138,VALID,71,VALID,1.68932,
2004-01-22, 01:56:00,VALID,916.103,VALID,0,VALID,77.5692,VALID,-0.0169808,VALID,22.4044,VALID,73,VALID,1.68341,
2004-01-22, 01:57:00,VALID,916.128,VALID,0,VALID,77.7345,VALID,0,VALID,22.3974,VALID,77,VALID,1.24702,
2004-01-22, 01:58:00,VALID,916.131,VALID,0,VALID,77.8158,VALID,-0.0339617,VALID,22.3748,VALID,65,VALID,1.61143,
2004-01-22, 01:59:00,VALID,916.124,VALID,0,VALID,77.7637,VALID,-0.0509425,VALID,22.3718,VALID,78,VALID,1.96382,
2004-01-22, 02:00:00,VALID,916.124,VALID,0,VALID,78.1706,VALID,0,VALID,22.3654,VALID,77,VALID,1.72384,
2004-01-22, 02:01:00,VALID,916.095,VALID,0,VALID,78.3512,VALID,0,VALID,22.3363,VALID,96,VALID,2.27763,
2004-01-22, 02:02:00,VALID,916.068,VALID,0,VALID,78.6754,VALID,-0.0339617,VALID,22.274,VALID,61,VALID,1.54942,
2004-01-22, 02:03:00,VALID,916.04,VALID,0,VALID,78.4046,VALID,-0.0339617,VALID,22.2552,VALID,58,VALID,1.82831,
2004-01-22, 02:04:00,VALID,916.018,VALID,0,VALID,78.3321,VALID,-0.0169808,VALID,22.262,VALID,80,VALID,1.75977,
2004-01-22, 02:05:00,VALID,915.99,VALID,0,VALID,78.6882,VALID,-0.0169808,VALID,22.2717,VALID,85,VALID,1.19085,
2004-01-22, 02:06:00,VALID,915.961,VALID,0,VALID,79.3596,VALID,-0.0169808,VALID,22.2652,VALID,79,VALID,1.10281,
2004-01-22, 02:07:00,VALID,915.959,VALID,0,VALID,80.0399,VALID,0,VALID,22.2132,VALID,80,VALID,1.37723,
2004-01-22, 02:08:00,VALID,915.954,VALID,0,VALID,80.7443,VALID,-0.0339617,VALID,22.1527,VALID,70,VALID,1.10724,
2004-01-22, 02:09:00,VALID,915.951,VALID,0,VALID,81.3102,VALID,-0.0339617,VALID,22.0643,VALID,59,VALID,1.22899,
2004-01-22, 02:10:00,VALID,915.949,VALID,0,VALID,81.651,VALID,0,VALID,21.9935,VALID,61,VALID,1.2209,
2004-01-22, 02:11:00,VALID,915.944,VALID,0,VALID,82.1825,VALID,-0.0169808,VALID,21.9254,VALID,56,VALID,0.818004,
2004-01-22, 02:12:00,VALID,915.922,VALID,0,VALID,82.475,VALID,0,VALID,21.8678,VALID,67,VALID,0.772436,
2004-01-22, 02:13:00,VALID,915.909,VALID,0,VALID,82.5081,VALID,0,VALID,21.8187,VALID,85,VALID,0.905678,
2004-01-22, 02:14:00,VALID,915.897,VALID,0,VALID,82.5755,VALID,0,VALID,21.7996,VALID,94,VALID,0.685192,
2004-01-22, 02:15:00,VALID,915.891,VALID,0,VALID,82.5538,VALID,0,VALID,21.7767,VALID,81,VALID,1.12928,
2004-01-22, 02:16:00,VALID,915.875,VALID,0,VALID,82.7382,VALID,-0.0169808,VALID,21.7641,VALID,71,VALID,1.29811,
2004-01-22, 02:17:00,VALID,915.831,VALID,0,VALID,82.4089,VALID,0,VALID,21.7539,VALID,97,VALID,1.03142,
2004-01-22, 02:18:00,VALID,915.805,VALID,0,VALID,81.8875,VALID,0,VALID,21.7805,VALID,68,VALID,1.22696,
2004-01-22, 02:19:00,VALID,915.78,VALID,0,VALID,81.9842,VALID,-0.0169808,VALID,21.8131,VALID,23,VALID,1.25472,
2004-01-22, 02:20:00,VALID,915.784,VALID,0,VALID,81.3242,VALID,0,VALID,21.8489,VALID,18,VALID,1.51385,
2004-01-22, 02:21:00,VALID,915.772,VALID,0,VALID,80.5956,VALID,-0.0169808,VALID,21.9168,VALID,58,VALID,1.9286,
2004-01-22, 02:22:00,VALID,915.743,VALID,0,VALID,80.3425,VALID,0,VALID,21.9676,VALID,37,VALID,2.34273,
2004-01-22, 02:23:00,VALID,915.739,VALID,0,VALID,80.2904,VALID,-0.0169808,VALID,21.9905,VALID,28,VALID,1.92988,
2004-01-22, 02:24:00,VALID,915.747,VALID,0,VALID,80.8028,VALID,0,VALID,21.9841,VALID,13,VALID,1.23926,
2004-01-22, 02:25:00,VALID,915.749,VALID,0,VALID,80.2586,VALID,-0.0169808,VALID,21.9647,VALID,22,VALID,1.59909,
2004-01-22, 02:26:00,VALID,915.76,VALID,0,VALID,80.4697,VALID,-0.0169808,VALID,21.9744,VALID,55,VALID,1.26353,
2004-01-22, 02:27:00,VALID,915.759,VALID,0,VALID,80.4519,VALID,-0.0339617,VALID,21.9685,VALID,78,VALID,1.30788,
2004-01-22, 02:28:00,VALID,915.745,VALID,0,VALID,80.4061,VALID,-0.0169808,VALID,21.9421,VALID,75,VALID,1.06042,
2004-01-22, 02:29:00,VALID,915.73,VALID,0,VALID,81.0953,VALID,-0.0169808,VALID,21.9162,VALID,53,VALID,0.714558,
2004-01-22, 02:30:00,VALID,915.702,VALID,0,VALID,81.1335,VALID,0,VALID,21.861,VALID,60,VALID,0.880504,
2004-01-22, 02:31:00,VALID,915.677,VALID,0,VALID,81.4412,VALID,-0.0339617,VALID,21.8325,VALID,26,VALID,0.9998,
2004-01-22, 02:32:00,VALID,915.642,VALID,0,VALID,81.8443,VALID,-0.0849042,VALID,21.7835,VALID,20,VALID,0.979288,
2004-01-22, 02:33:00,VALID,915.625,VALID,0,VALID,82.4737,VALID,-0.0339617,VALID,21.7679,VALID,21,VALID,0.619855,
2004-01-22, 02:34:00,VALID,915.597,VALID,0,VALID,82.5195,VALID,-0.0339617,VALID,21.7226,VALID,20,VALID,0.923077,
2004-01-22, 02:35:00,VALID,915.577,VALID,0,VALID,82.5602,VALID,0,VALID,21.6839,VALID,22,VALID,1.12671,
2004-01-22, 02:36:00,VALID,915.523,VALID,0,VALID,82.8476,VALID,-0.0339617,VALID,21.6677,VALID,16,VALID,0.771875,
2004-01-22, 02:37:00,VALID,915.483,VALID,0,VALID,82.0846,VALID,-0.0169808,VALID,21.6386,VALID,8,VALID,1.47871,
2004-01-22, 02:38:00,VALID,915.448,VALID,0,VALID,81.5455,VALID,0,VALID,21.6319,VALID,19,VALID,1.76217,
2004-01-22, 02:39:00,VALID,915.436,VALID,0,VALID,81.4183,VALID,-0.0169808,VALID,21.6446,VALID,36,VALID,2.05907,
2004-01-22, 02:40:00,VALID,915.434,VALID,0,VALID,81.4094,VALID,-0.0169808,VALID,21.6701,VALID,68,VALID,1.45163,
2004-01-22, 02:41:00,VALID,915.421,VALID,0,VALID,82.1012,VALID,-0.0169808,VALID,21.6588,VALID,80,VALID,1.38895,
2004-01-22, 02:42:00,VALID,915.38,VALID,0,VALID,81.8494,VALID,-0.0339617,VALID,21.5773,VALID,76,VALID,1.26136,
2004-01-22, 02:43:00,VALID,915.356,VALID,0,VALID,81.2746,VALID,-0.0679233,VALID,21.5385,VALID,97,VALID,1.307,
2004-01-22, 02:44:00,VALID,915.342,VALID,0,VALID,81.3573,VALID,-0.0339617,VALID,21.5258,VALID,63,VALID,0.958984,
2004-01-22, 02:45:00,VALID,915.333,VALID,0,VALID,80.3641,VALID,0,VALID,21.5029,VALID,95,VALID,1.21632,
2004-01-22, 02:46:00,VALID,915.351,VALID,0,VALID,80.3718,VALID,-0.0169808,VALID,21.5484,VALID,84,VALID,0.929865,
2004-01-22, 02:47:00,VALID,915.35,VALID,0,VALID,79.8822,VALID,-0.0339617,VALID,21.5778,VALID,112,VALID,1.90698,
2004-01-22, 02:48:00,VALID,915.34,VALID,0,VALID,79.6787,VALID,-0.0339617,VALID,21.6066,VALID,69,VALID,0.912064,
2004-01-22, 02:49:00,VALID,915.36,VALID,0,VALID,80.5231,VALID,-0.0169808,VALID,21.6131,VALID,65,VALID,1.32965,
2004-01-22, 02:50:00,VALID,915.354,VALID,0,VALID,80.0742,VALID,-0.0169808,VALID,21.5834,VALID,83,VALID,1.38594,
2004-01-22, 02:51:00,VALID,915.362,VALID,0,VALID,80.387,VALID,0,VALID,21.577,VALID,78,VALID,1.43502,
2004-01-22, 02:52:00,VALID,915.34,VALID,0,VALID,80.8435,VALID,-0.0169808,VALID,21.5385,VALID,66,VALID,0.84468,
2004-01-22, 02:53:00,VALID,915.321,VALID,0,VALID,80.1213,VALID,-0.0339617,VALID,21.4704,VALID,64,VALID,0.729469,
2004-01-22, 02:54:00,VALID,915.331,VALID,0,VALID,80.0984,VALID,-0.0169808,VALID,21.4844,VALID,97,VALID,1.16988,
2004-01-22, 02:55:00,VALID,915.307,VALID,0,VALID,79.8809,VALID,-0.0679233,VALID,21.4833,VALID,91,VALID,1.35605,
2004-01-22, 02:56:00,VALID,915.286,VALID,0,VALID,80.0322,VALID,-0.0509425,VALID,21.5231,VALID,80,VALID,1.10423,
2004-01-22, 02:57:00,VALID,915.249,VALID,0,VALID,80.7952,VALID,-0.0509425,VALID,21.4938,VALID,56,VALID,1.28255,
2004-01-22, 02:58:00,VALID,915.238,VALID,0,VALID,81.9066,VALID,-0.0509425,VALID,21.4063,VALID,51,VALID,0.97247,
2004-01-22, 02:59:00,VALID,915.205,VALID,0,VALID,81.1881,VALID,-0.0339617,VALID,21.3164,VALID,62,VALID,1.17746,
2004-01-22, 03:00:00,VALID,915.18,VALID,0,VALID,81.5912,VALID,0,VALID,21.293,VALID,56,VALID,1.26217,
2004-01-22, 03:01:00,VALID,915.149,VALID,0,VALID,81.15,VALID,0,VALID,21.2706,VALID,93,VALID,1.78809,
2004-01-22, 03:02:00,VALID,915.151,VALID,0,VALID,80.2281,VALID,-0.0169808,VALID,21.2897,VALID,133,VALID,1.99119,
2004-01-22, 03:03:00,VALID,915.169,VALID,0,VALID,80.8143,VALID,-0.0169808,VALID,21.3288,VALID,62,VALID,0.67721,
2004-01-22, 03:04:00,VALID,915.206,VALID,0,VALID,81.0305,VALID,-0.0339617,VALID,21.342,VALID,71,VALID,1.11953,
2004-01-22, 03:05:00,VALID,915.223,VALID,0,VALID,79.9471,VALID,-0.0169808,VALID,21.3223,VALID,71,VALID,1.81895,
2004-01-22, 03:06:00,VALID,915.214,VALID,0,VALID,79.343,VALID,-0.0169808,VALID,21.3708,VALID,83,VALID,1.71403,
2004-01-22, 03:07:00,VALID,915.223,VALID,0,VALID,79.2439,VALID,-0.0339617,VALID,21.4292,VALID,65,VALID,1.5502,
2004-01-22, 03:08:00,VALID,915.223,VALID,0,VALID,79.6724,VALID,0,VALID,21.4389,VALID,64,VALID,0.847098,
2004-01-22, 03:09:00,VALID,915.196,VALID,0,VALID,79.7817,VALID,-0.0169808,VALID,21.4198,VALID,101,VALID,1.06174,
2004-01-22, 03:10:00,VALID,915.178,VALID,0,VALID,79.048,VALID,-0.0509425,VALID,21.4066,VALID,66,VALID,1.92223,
2004-01-22, 03:11:00,VALID,915.173,VALID,0,VALID,79.3977,VALID,-0.0169808,VALID,21.4128,VALID,68,VALID,2.05614,
2004-01-22, 03:12:00,VALID,915.166,VALID,0,VALID,79.8568,VALID,-0.0169808,VALID,21.3705,VALID,98,VALID,1.81421,
2004-01-22, 03:13:00,VALID,915.139,VALID,0,VALID,79.825,VALID,0.0679233,VALID,21.3336,VALID,84,VALID,1.97731,
2004-01-22, 03:14:00,VALID,915.121,VALID,0,VALID,79.3341,VALID,0.0169808,VALID,21.3107,VALID,78,VALID,2.24325,
2004-01-22, 03:15:00,VALID,915.126,VALID,0,VALID,79.5656,VALID,0.0509425,VALID,21.3274,VALID,106,VALID,1.99638,
2004-01-22, 03:16:00,VALID,915.12,VALID,0,VALID,78.7606,VALID,0.0509425,VALID,21.3697,VALID,96,VALID,2.44956,
2004-01-22, 03:17:00,VALID,915.09,VALID,0,VALID,77.6976,VALID,0.0849042,VALID,21.4373,VALID,100,VALID,2.6317,
2004-01-22, 03:18:00,VALID,915.078,VALID,0,VALID,77.9481,VALID,0.0509425,VALID,21.5215,VALID,53,VALID,2.72479,
2004-01-22, 03:19:00,VALID,915.076,VALID,0,VALID,77.8031,VALID,0.0169808,VALID,21.5764,VALID,42,VALID,3.91518,
2004-01-22, 03:20:00,VALID,915.132,VALID,0,VALID,77.9188,VALID,0.0169808,VALID,21.6085,VALID,56,VALID,2.64177,
2004-01-22, 03:21:00,VALID,915.139,VALID,0,VALID,78.6309,VALID,0.0169808,VALID,21.5991,VALID,92,VALID,2.22674,
2004-01-22, 03:22:00,VALID,915.118,VALID,0,VALID,77.8336,VALID,0.0849042,VALID,21.5799,VALID,102,VALID,3.34012,
2004-01-22, 03:23:00,VALID,915.128,VALID,0,VALID,77.2792,VALID,0.0339617,VALID,21.5991,VALID,80,VALID,3.52023,
2004-01-22, 03:24:00,VALID,915.158,VALID,0,VALID,77.6048,VALID,0.0169808,VALID,21.6349,VALID,54,VALID,1.93732,
2004-01-22, 03:25:00,VALID,915.198,VALID,0,VALID,78.7403,VALID,0.0339617,VALID,21.6314,VALID,84,VALID,1.85871,
2004-01-22, 03:26:00,VALID,915.181,VALID,0,VALID,79.7385,VALID,0.0679233,VALID,21.5791,VALID,74,VALID,1.76776,
2004-01-22, 03:27:00,VALID,915.145,VALID,0,VALID,80.4799,VALID,0.0339617,VALID,21.518,VALID,111,VALID,0.905362,
2004-01-22, 03:28:00,VALID,915.148,VALID,0,VALID,80.9503,VALID,0.0169808,VALID,21.4636,VALID,114,VALID,2.10099,
2004-01-22, 03:29:00,VALID,915.126,VALID,0,VALID,81.211,VALID,0.0849042,VALID,21.4122,VALID,66,VALID,1.99546,
2004-01-22, 03:30:00,VALID,915.119,VALID,0,VALID,81.52,VALID,0.0679233,VALID,21.3465,VALID,90,VALID,1.95004,
2004-01-22, 03:31:00,VALID,915.072,VALID,0,VALID,80.0857,VALID,0.0849042,VALID,21.3051,VALID,109,VALID,1.41246,
2004-01-22, 03:32:00,VALID,915.07,VALID,0,VALID,79.6851,VALID,0.0509425,VALID,21.3274,VALID,66,VALID,1.47337,
2004-01-22, 03:33:00,VALID,915.093,VALID,0,VALID,80.2293,VALID,0.0169808,VALID,21.3665,VALID,116,VALID,1.83267,
2004-01-22, 03:34:00,VALID,915.063,VALID,0,VALID,80.8575,VALID,0.0509425,VALID,21.3403,VALID,47,VALID,1.87749,
2004-01-22, 03:35:00,VALID,915.076,VALID,0,VALID,81.1322,VALID,0.0509425,VALID,21.3121,VALID,52,VALID,1.87409,
2004-01-22, 03:36:00,VALID,915.076,VALID,0,VALID,81.2237,VALID,0.0679233,VALID,21.2596,VALID,52,VALID,1.83878,